sat.trackr.live / text

‹ back to catalog

STARLINK-3812

NORAD 52346 · 2022-045R

PAYLOAD ACTIVE UNKNOWN

§ Identity

Operator
Country
US
Launch date
2022-04-29
Launch site
AFETR
Launch vehicle
Mass (kg)
RCS (m²)

Purposes: comms

External: N2YO · Heavens-Above · Gunter

§ Orbital elements

Epoch: 2026-09-20T02:18:48.641184Z

Period
94.01 min
Inclination
53.1615°
Eccentricity
0.0001150
Mean motion
15.31699488 rev/d
Perigee alt
470.0 km
Apogee alt
471.5 km
Semi-major
6,848.9 km
B*
1.8570e-5
RAAN
35.6576°
Arg perigee
86.4467°
Mean anomaly
273.6666°
Rev number
24,527

§ Raw data

STARLINK-38121 52346U 22045R   26263.09639631  .00000211  00000+0  18570-4 0  99972 52346  53.1615  35.6576 0001150  86.4467 273.6666 15.31699488245277

JSON: /api/v1/satellites/52346 · /tle

For live sub-satellite position, see the globe view (requires WebGL).

§ Visibility from observer

Set your observer location to see the next 7 days of passes ≥ 10°. The values pass through the URL so the page stays shareable.

No JS? Fill the form by hand. The geolocation button needs JavaScript.